Time,TemperatureF,DewpointF,PressureIn,WindDirection,WindDirectionDegrees,WindSpeedMPH,WindSpeedGustMPH,Humidity,HourlyPrecipIn,Conditions,Clouds,dailyrainin,SoftwareType,DateUTC
2013-05-06 00:01:00,33.8,33.0,30.26,SSE,158,0.0,0.0,95,0.00,,,0.00,weatherlink.com 1.10,2013-05-06 04:01:00,
2013-05-06 00:17:00,32.9,32.0,30.25,SSE,158,0.0,0.0,95,0.00,,,0.00,weatherlink.com 1.10,2013-05-06 04:17:00,
2013-05-06 00:32:00,32.6,31.0,30.25,SSE,158,0.0,0.0,95,0.00,,,0.00,weatherlink.com 1.10,2013-05-06 04:32:00,
2013-05-06 00:47:00,32.5,32.0,30.25,SSE,158,0.0,0.0,96,0.00,,,0.00,weatherlink.com 1.10,2013-05-06 04:47:00,
2013-05-06 01:02:00,32.9,32.0,30.25,SSE,158,0.0,1.0,96,0.00,,,0.00,weatherlink.com 1.10,2013-05-06 05:02:00,
2013-05-06 01:17:00,31.6,30.0,30.25,SSE,158,0.0,0.0,95,0.00,,,0.00,weatherlink.com 1.10,2013-05-06 05:17:00,
2013-05-06 01:32:00,31.4,30.0,30.25,SSE,158,0.0,0.0,96,0.00,,,0.00,weatherlink.com 1.10,2013-05-06 05:32:00,
2013-05-06 01:48:00,31.3,30.0,30.24,SSE,158,0.0,0.0,96,0.00,,,0.00,weatherlink.com 1.10,2013-05-06 05:48:00,
2013-05-06 02:02:00,30.3,29.0,30.24,SSE,158,0.0,0.0,95,0.00,,,0.00,weatherlink.com 1.10,2013-05-06 06:02:00,
2013-05-06 02:17:00,30.2,29.0,30.23,SSE,158,0.0,0.0,96,0.00,,,0.00,weatherlink.com 1.10,2013-05-06 06:17:00,
2013-05-06 02:32:00,30.3,30.0,30.24,SSE,158,0.0,0.0,97,0.00,,,0.00,weatherlink.com 1.10,2013-05-06 06:32:00,
2013-05-06 02:47:00,30.0,29.0,30.23,SSE,158,0.0,0.0,96,0.00,,,0.00,weatherlink.com 1.10,2013-05-06 06:47:00,
2013-05-06 03:02:00,29.5,29.0,30.23,SSE,158,0.0,0.0,96,0.00,,,0.00,weatherlink.com 1.10,2013-05-06 07:02:00,
2013-05-06 03:17:00,28.7,28.0,30.23,SSE,158,0.0,0.0,96,0.00,,,0.00,weatherlink.com 1.10,2013-05-06 07:17:00,
2013-05-06 03:32:00,29.1,28.0,30.23,SSE,158,0.0,1.0,97,0.00,,,0.00,weatherlink.com 1.10,2013-05-06 07:32:00,
2013-05-06 03:47:00,29.0,28.0,30.23,SSE,158,0.0,0.0,97,0.00,,,0.00,weatherlink.com 1.10,2013-05-06 07:47:00,
2013-05-06 04:02:00,29.2,29.0,30.23,SSE,158,0.0,0.0,97,0.00,,,0.00,weatherlink.com 1.10,2013-05-06 08:02:00,
2013-05-06 04:17:00,29.0,28.0,30.23,SSE,158,0.0,0.0,97,0.00,,,0.00,weatherlink.com 1.10,2013-05-06 08:17:00,
2013-05-06 04:32:00,28.2,28.0,30.23,SSE,158,0.0,0.0,97,0.00,,,0.00,weatherlink.com 1.10,2013-05-06 08:32:00,
2013-05-06 04:47:00,27.8,27.0,30.24,SSE,158,0.0,0.0,97,0.00,,,0.00,weatherlink.com 1.10,2013-05-06 08:47:00,
2013-05-06 05:02:00,28.3,28.0,30.24,SSE,158,0.0,0.0,97,0.00,,,0.00,weatherlink.com 1.10,2013-05-06 09:02:00,
2013-05-06 05:17:00,28.3,28.0,30.24,SSE,158,0.0,0.0,97,0.00,,,0.00,weatherlink.com 1.10,2013-05-06 09:17:00,
2013-05-06 05:32:00,28.4,28.0,30.24,SSE,158,0.0,0.0,97,0.00,,,0.00,weatherlink.com 1.10,2013-05-06 09:32:00,
2013-05-06 05:47:00,28.4,28.0,30.24,SSE,158,0.0,0.0,97,0.00,,,0.00,weatherlink.com 1.10,2013-05-06 09:47:00,
2013-05-06 06:02:00,28.2,28.0,30.25,SSE,158,0.0,0.0,97,0.00,,,0.00,weatherlink.com 1.10,2013-05-06 10:02:00,
2013-05-06 06:17:00,27.6,27.0,30.25,SSE,158,0.0,0.0,97,0.00,,,0.00,weatherlink.com 1.10,2013-05-06 10:17:00,
2013-05-06 06:32:00,28.8,28.0,30.25,SSE,158,0.0,0.0,97,0.00,,,0.00,weatherlink.com 1.10,2013-05-06 10:32:00,
2013-05-06 06:47:00,30.4,30.0,30.26,SSE,158,0.0,0.0,97,0.00,,,0.00,weatherlink.com 1.10,2013-05-06 10:47:00,
2013-05-06 07:02:00,32.3,32.0,30.25,SSE,158,0.0,0.0,97,0.00,,,0.00,weatherlink.com 1.10,2013-05-06 11:02:00,
2013-05-06 07:17:00,38.2,38.0,30.25,SSE,158,0.0,0.0,98,0.00,,,0.00,weatherlink.com 1.10,2013-05-06 11:17:00,
2013-05-06 07:32:00,41.3,41.0,30.26,SSE,158,0.0,0.0,98,0.00,,,0.00,weatherlink.com 1.10,2013-05-06 11:32:00,
2013-05-06 07:47:00,45.9,45.0,30.26,SSE,158,0.0,0.0,97,0.00,,,0.00,weatherlink.com 1.10,2013-05-06 11:47:00,
2013-05-06 08:02:00,46.5,44.0,30.26,SW,221,0.0,1.0,91,0.00,,,0.00,weatherlink.com 1.10,2013-05-06 12:02:00,
2013-05-06 08:18:00,49.0,45.0,30.26,East,87,2.0,2.0,85,0.00,,,0.00,weatherlink.com 1.10,2013-05-06 12:18:00,
2013-05-06 08:33:00,50.3,45.0,30.25,East,91,1.0,3.0,81,0.00,,,0.00,weatherlink.com 1.10,2013-05-06 12:33:00,
2013-05-06 08:48:00,51.4,45.0,30.26,NE,55,3.0,5.0,79,0.00,,,0.00,weatherlink.com 1.10,2013-05-06 12:48:00,
2013-05-06 09:03:00,53.0,45.0,30.26,East,79,3.0,4.0,75,0.00,,,0.00,weatherlink.com 1.10,2013-05-06 13:03:00,
2013-05-06 09:18:00,52.8,44.0,30.26,East,94,3.0,6.0,73,0.00,,,0.00,weatherlink.com 1.10,2013-05-06 13:18:00,
2013-05-06 09:33:00,54.1,45.0,30.26,West,276,1.0,4.0,72,0.00,,,0.00,weatherlink.com 1.10,2013-05-06 13:33:00,
2013-05-06 09:48:00,55.1,45.0,30.26,ENE,60,3.0,4.0,68,0.00,,,0.00,weatherlink.com 1.10,2013-05-06 13:48:00,
2013-05-06 10:03:00,56.3,44.0,30.25,West,269,1.0,4.0,64,0.00,,,0.00,weatherlink.com 1.10,2013-05-06 14:03:00,
2013-05-06 10:18:00,57.4,46.0,30.25,ESE,115,1.0,5.0,65,0.00,,,0.00,weatherlink.com 1.10,2013-05-06 14:18:00,
2013-05-06 10:33:00,58.2,42.0,30.25,NE,53,2.0,6.0,56,0.00,,,0.00,weatherlink.com 1.10,2013-05-06 14:33:00,
2013-05-06 10:48:00,59.3,43.0,30.25,ENE,77,7.0,9.0,55,0.00,,,0.00,weatherlink.com 1.10,2013-05-06 14:48:00,
2013-05-06 11:03:00,59.8,41.0,30.24,ENE,60,1.0,7.0,51,0.00,,,0.00,weatherlink.com 1.10,2013-05-06 15:03:00,
2013-05-06 11:18:00,60.7,40.0,30.24,North,357,4.0,6.0,47,0.00,,,0.00,weatherlink.com 1.10,2013-05-06 15:18:00,
2013-05-06 11:33:00,62.1,41.0,30.23,SSW,200,1.0,5.0,47,0.00,,,0.00,weatherlink.com 1.10,2013-05-06 15:33:00,
2013-05-06 11:48:00,63.2,38.0,30.23,ESE,102,1.0,6.0,40,0.00,,,0.00,weatherlink.com 1.10,2013-05-06 15:48:00,
2013-05-06 12:03:00,64.5,38.0,30.22,ESE,121,2.0,5.0,38,0.00,,,0.00,weatherlink.com 1.10,2013-05-06 16:03:00,
2013-05-06 12:18:00,64.7,38.0,30.21,SE,146,2.0,8.0,37,0.00,,,0.00,weatherlink.com 1.10,2013-05-06 16:18:00,
2013-05-06 12:33:00,66.7,37.0,30.21,ENE,73,2.0,6.0,33,0.00,,,0.00,weatherlink.com 1.10,2013-05-06 16:33:00,
2013-05-06 12:48:00,66.7,37.0,30.20,ENE,67,2.0,7.0,33,0.00,,,0.00,weatherlink.com 1.10,2013-05-06 16:48:00,
2013-05-06 13:04:00,68.0,40.0,30.19,SSE,165,0.0,5.0,36,0.00,,,0.00,weatherlink.com 1.10,2013-05-06 17:04:00,
2013-05-06 13:19:00,68.0,39.0,30.19,SSE,158,3.0,8.0,35,0.00,,,0.00,weatherlink.com 1.10,2013-05-06 17:19:00,
2013-05-06 13:34:00,69.4,40.0,30.18,East,89,5.0,6.0,34,0.00,,,0.00,weatherlink.com 1.10,2013-05-06 17:34:00,
2013-05-06 13:49:00,69.3,40.0,30.18,SE,146,2.0,9.0,35,0.00,,,0.00,weatherlink.com 1.10,2013-05-06 17:49:00,
2013-05-06 14:04:00,70.1,40.0,30.17,SE,145,3.0,6.0,34,0.00,,,0.00,weatherlink.com 1.10,2013-05-06 18:04:00,
2013-05-06 14:19:00,70.1,39.0,30.17,East,93,2.0,7.0,32,0.00,,,0.00,weatherlink.com 1.10,2013-05-06 18:19:00,
2013-05-06 14:34:00,71.2,40.0,30.16,ENE,57,2.0,5.0,32,0.00,,,0.00,weatherlink.com 1.10,2013-05-06 18:34:00,
2013-05-06 14:49:00,72.4,42.0,30.16,ENE,75,4.0,10.0,34,0.00,,,0.00,weatherlink.com 1.10,2013-05-06 18:49:00,
2013-05-06 15:04:00,71.4,37.0,30.15,SE,139,2.0,6.0,29,0.00,,,0.00,weatherlink.com 1.10,2013-05-06 19:04:00,
2013-05-06 15:19:00,72.0,38.0,30.14,NNE,23,0.0,7.0,29,0.00,,,0.00,weatherlink.com 1.10,2013-05-06 19:19:00,
2013-05-06 15:34:00,73.3,42.0,30.14,SW,226,1.0,6.0,32,0.00,,,0.00,weatherlink.com 1.10,2013-05-06 19:34:00,
2013-05-06 15:49:00,73.2,36.0,30.13,ESE,117,1.0,6.0,26,0.00,,,0.00,weatherlink.com 1.10,2013-05-06 19:49:00,
2013-05-06 16:04:00,73.1,36.0,30.13,ESE,102,1.0,8.0,26,0.00,,,0.00,weatherlink.com 1.10,2013-05-06 20:04:00,
2013-05-06 16:19:00,72.4,36.0,30.12,NNE,22,1.0,7.0,26,0.00,,,0.00,weatherlink.com 1.10,2013-05-06 20:19:00,
2013-05-06 16:34:00,72.9,35.0,30.12,SSE,153,4.0,9.0,25,0.00,,,0.00,weatherlink.com 1.10,2013-05-06 20:34:00,
2013-05-06 16:49:00,72.7,34.0,30.12,NNW,340,0.0,5.0,24,0.00,,,0.00,weatherlink.com 1.10,2013-05-06 20:49:00,
2013-05-06 17:04:00,72.6,37.0,30.12,NE,47,1.0,7.0,27,0.00,,,0.00,weatherlink.com 1.10,2013-05-06 21:04:00,
2013-05-06 17:19:00,72.4,36.0,30.12,East,89,3.0,6.0,27,0.00,,,0.00,weatherlink.com 1.10,2013-05-06 21:19:00,
2013-05-06 17:34:00,72.4,37.0,30.12,SE,141,3.0,7.0,28,0.00,,,0.00,weatherlink.com 1.10,2013-05-06 21:34:00,
2013-05-06 17:49:00,72.5,38.0,30.12,ESE,117,0.0,6.0,28,0.00,,,0.00,weatherlink.com 1.10,2013-05-06 21:49:00,
2013-05-06 18:04:00,71.9,40.0,30.12,East,82,2.0,7.0,31,0.00,,,0.00,weatherlink.com 1.10,2013-05-06 22:04:00,
2013-05-06 18:19:00,71.2,37.0,30.12,East,100,1.0,7.0,29,0.00,,,0.00,weatherlink.com 1.10,2013-05-06 22:19:00,
2013-05-06 18:34:00,70.5,37.0,30.11,ENE,70,3.0,7.0,29,0.00,,,0.00,weatherlink.com 1.10,2013-05-06 22:34:00,
2013-05-06 18:49:00,69.7,36.0,30.11,East,99,1.0,5.0,29,0.00,,,0.00,weatherlink.com 1.10,2013-05-06 22:49:00,
2013-05-06 19:04:00,68.9,37.0,30.12,SE,130,1.0,4.0,31,0.00,,,0.00,weatherlink.com 1.10,2013-05-06 23:04:00,
2013-05-06 19:19:00,66.1,43.0,30.12,ESE,118,1.0,7.0,44,0.00,,,0.00,weatherlink.com 1.10,2013-05-06 23:19:00,
2013-05-06 19:34:00,64.0,45.0,30.12,ESE,108,1.0,3.0,50,0.00,,,0.00,weatherlink.com 1.10,2013-05-06 23:34:00,
2013-05-06 19:49:00,62.4,45.0,30.13,ESE,105,1.0,3.0,54,0.00,,,0.00,weatherlink.com 1.10,2013-05-06 23:49:00,
2013-05-06 20:04:00,60.4,46.0,30.13,SE,134,0.0,1.0,59,0.00,,,0.00,weatherlink.com 1.10,2013-05-07 00:04:00,
2013-05-06 20:19:00,57.6,46.0,30.14,ESE,119,4.0,5.0,65,0.00,,,0.00,weatherlink.com 1.10,2013-05-07 00:19:00,
2013-05-06 20:34:00,56.6,46.0,30.14,ESE,122,0.0,1.0,67,0.00,,,0.00,weatherlink.com 1.10,2013-05-07 00:34:00,
2013-05-06 20:49:00,55.0,46.0,30.15,WSW,243,0.0,1.0,71,0.00,,,0.00,weatherlink.com 1.10,2013-05-07 00:49:00,
2013-05-06 21:04:00,53.3,46.0,30.16,WSW,243,0.0,1.0,76,0.00,,,0.00,weatherlink.com 1.10,2013-05-07 01:04:00,
2013-05-06 21:19:00,52.0,46.0,30.16,WSW,243,0.0,0.0,79,0.00,,,0.00,weatherlink.com 1.10,2013-05-07 01:19:00,
2013-05-06 21:34:00,50.8,46.0,30.16,WSW,243,0.0,0.0,83,0.00,,,0.00,weatherlink.com 1.10,2013-05-07 01:34:00,
2013-05-06 21:49:00,49.5,45.0,30.16,WSW,243,0.0,0.0,83,0.00,,,0.00,weatherlink.com 1.10,2013-05-07 01:49:00,
2013-05-06 22:04:00,48.3,45.0,30.16,WSW,243,0.0,0.0,87,0.00,,,0.00,weatherlink.com 1.10,2013-05-07 02:04:00,
2013-05-06 22:19:00,47.6,45.0,30.16,WSW,243,0.0,0.0,89,0.00,,,0.00,weatherlink.com 1.10,2013-05-07 02:19:00,
2013-05-06 22:34:00,46.7,44.0,30.16,WSW,243,0.0,0.0,89,0.00,,,0.00,weatherlink.com 1.10,2013-05-07 02:34:00,
2013-05-06 22:49:00,45.5,43.0,30.16,WSW,245,0.0,0.0,92,0.00,,,0.00,weatherlink.com 1.10,2013-05-07 02:49:00,
2013-05-06 23:04:00,45.0,43.0,30.16,WSW,245,0.0,0.0,93,0.00,,,0.00,weatherlink.com 1.10,2013-05-07 03:04:00,
2013-05-06 23:20:00,44.6,43.0,30.16,WSW,245,0.0,0.0,93,0.00,,,0.00,weatherlink.com 1.10,2013-05-07 03:20:00,
2013-05-06 23:35:00,44.1,43.0,30.15,WSW,245,0.0,0.0,94,0.00,,,0.00,weatherlink.com 1.10,2013-05-07 03:35:00,
2013-05-06 23:50:00,43.8,42.0,30.15,WSW,245,0.0,0.0,94,0.00,,,0.00,weatherlink.com 1.10,2013-05-07 03:50:00,